This is the latest recevied weather packets stored in our database for station/object HB9HFD-13. If no packets are shown the sender has not sent any weather packets the latest 10 day(s).
| Time | Temp. | Humidity | Pressure | Rain* | Wind** | Luminosity | Snow |
|---|---|---|---|---|---|---|---|
| 1777957466 | 10° C | 95% | 1008.6 hPa | 2.79 mm | - | - | - |
| 1777957165 | 10° C | 95% | 1008.7 hPa | 3.05 mm | - | - | - |
| 1777956865 | 10° C | 95% | 1008.7 hPa | 3.05 mm | - | - | - |
| 1777956565 | 10° C | 95% | 1008.5 hPa | 3.05 mm | - | - | - |
| 1777956265 | 10° C | 95% | 1008.7 hPa | 3.3 mm | - | - | - |
| 1777955964 | 10.56° C | 95% | 1008.7 hPa | 3.56 mm | - | - | - |
| 1777955664 | 10.56° C | 95% | 1008.7 hPa | 3.81 mm | - | - | - |
| 1777955364 | 10.56° C | 95% | 1008.8 hPa | 3.81 mm | - | - | - |
| 1777955064 | 10.56° C | 95% | 1008.9 hPa | 3.81 mm | - | - | - |
| 1777954763 | 10.56° C | 95% | 1009 hPa | 3.56 mm | - | - | - |
| 1777954463 | 10.56° C | 95% | 1009 hPa | 3.56 mm | - | - | - |
| 1777954163 | 10.56° C | 95% | 1009 hPa | 3.05 mm | - | - | - |
| 1777953863 | 10.56° C | 95% | 1009.2 hPa | 2.79 mm | - | - | - |
| 1777953562 | 10.56° C | 95% | 1009.1 hPa | 2.29 mm | - | - | - |
| 1777953262 | 10.56° C | 95% | 1009.2 hPa | 2.29 mm | - | - | - |
| 1777952962 | 10.56° C | 95% | 1009.2 hPa | 2.03 mm | - | - | - |
| 1777952661 | 10.56° C | 95% | 1009.4 hPa | 1.78 mm | - | - | - |
| 1777952361 | 10.56° C | 95% | 1009.4 hPa | 1.52 mm | - | - | - |
| 1777952061 | 10.56° C | 95% | 1009.4 hPa | 1.52 mm | - | - | - |
| 1777951761 | 10.56° C | 95% | 1009.4 hPa | 1.27 mm | - | - | - |
| 1777951460 | 10.56° C | 95% | 1009.4 hPa | 1.78 mm | - | - | - |
| 1777951160 | 10.56° C | 95% | 1009.4 hPa | 1.78 mm | - | - | - |
| 1777950860 | 10.56° C | 95% | 1009.5 hPa | 1.78 mm | - | - | - |
| 1777950560 | 10.56° C | 95% | 1009.4 hPa | 2.29 mm | - | - | - |
| 1777950259 | 10.56° C | 95% | 1009.3 hPa | 2.54 mm | - | - | - |
* Rain latest hour (hover to see other rain measurements)
** Current wind speed in m/s (hover to see current wind gust speed)